Regional Weather Roundup
Issued by NWS Jackson, KY

Home | Current Version | Previous Version | Text Only | Print | Product List | Glossary On
Versions: 1 2 3 4 5 6 7 8 9 10 11 12 13 14 15 16 17 18 19 20 21 22 23 24 25 26 27 28 29 30 31 32 33 34 35 36 37 38 39 40 41 42 43 44 45 46 47 48 49 50
000
ASUS43 KJKL 262119
RWRJKL

EAST KENTUCKY HOURLY WEATHER ROUNDUP
NATIONAL WEATHER SERVICE JACKSON KY
400 PM EST WED NOV 26 2014

NOTE: "FAIR" INDICATES FEW OR NO CLOUDS BELOW 12,000 FEET WITH
NO SIGNIFICANT WEATHER AND/OR OBSTRUCTIONS TO VISIBILITY.

* THESE REPORTS ARE NOT UNDER NWS QUALITY CONTROL AND MAY NOT
  REPORT WEATHER SUCH AS PRECIPITATION AND FOG.

KYZ079-080-083-085-087-088-110-112-115-119-120-262200
...EASTERN KENTUCKY...

CITY           SKY/WX    TMP DP  RH WIND       PRES   REMARKS
JACKSON        MOSUNNY   46  26  45 W7        29.99R
LONDON         SUNNY     48  20  32 W13       30.02R
SOMERSET*      SUNNY     45  25  45 W7        30.04F
MONTICELLO*    SUNNY     48  25  41 W5        30.06S
HARLAN APT*    PTCLDY    50  23  34 SW6       29.98S
HAZARD APT*    PTCLDY    48  27  43 SW5       29.99S
BLACK MTN*       N/A     36  27  69 S2          N/A
PIKEVILLE APT* MOSUNNY   45  30  57 NW6       29.98R
BIG SANDY*     CLEAR     46  32  57 CALM      29.99R
MOREHEAD APT*  MOCLDY    43  28  56 NW9G15    30.04S
ASHLAND*       MOSUNNY   45  28  53 NW5       30.00R
$$

KYZ035-036-041-042-044-050-067-078-099-262200
...CENTRAL KENTUCKY...

CITY           SKY/WX    TMP DP  RH WIND       PRES   REMARKS
MT STERLING*   PTSUNNY   43  32  65 NW5       30.04S
FLEMING/MASON* CLOUDY    41  28  60 W5        30.04R
DANVILLE*      SUNNY     43  27  52 CALM      30.03F
RICHMOND*      SUNNY     43  28  56 W6        30.03R
LEXINGTON      MOSUNNY   44  28  53 N3        30.02F
FRANKFORT      MOSUNNY   43  28  55 N6        30.02F
$$

KYZ091>093-OHZ055-061-077-WVZ005-015-034-035-042-262200
...SOUTHERN OHIO/WEST VIRGINIA...

CITY           SKY/WX    TMP DP  RH WIND       PRES   REMARKS
COVINGTON      PTSUNNY   40  26  57 CALM      30.04F
COLUMBUS       MOSUNNY   38  26  62 NW7       30.03S WCI  33
DAYTON         CLOUDY    33  25  72 NW7       30.06S WCI  27
WILMINGTON     CLOUDY    35  27  72 NW6       30.04R WCI  30
HUNTINGTON     PTSUNNY   44  31  60 VRB3      30.00R
CHARLESTON     CLOUDY    37  34  89 CALM      30.01R FOG
PINEVILLE*     CLOUDY    39  39  99 MISG      30.04R
BECKLEY        CLOUDY    35  33  92 W3        29.95S
BLUEFIELD      FOG       36  33  89 W3        29.96R VSB 1/2
$$

VAZ002-007-008-TNZ017-027-036-066-071-262200
...SOUTHWEST VIRGINIA/EAST TENNESSEE...

CITY           SKY/WX    TMP DP  RH WIND       PRES   REMARKS
WISE*          PTSUNNY   41  32  70 CALM      29.96S
JONESVILLE*    PTCLDY    48  27  43 W6        30.01R
ABINGDON*      CLOUDY    42  37  82 CALM      29.99S
BRISTOL        MOSUNNY   46  37  71 CALM      29.99F
KNOXVILLE      MOSUNNY   51  23  33 W14       30.01S
OAK RIDGE      SUNNY     53  23  31 VRB6      30.02F
CROSSVILLE     SUNNY     45  21  38 W8        30.03S
NASHVILLE      CLOUDY    49  23  36 S6        30.03F
$$

...KEY TO REMARKS...
VSB - VISIBILITY IN MILES
WCI - WIND CHILL INDEX
HX  - HEAT INDEX

$$


USA.gov is the U.S. government's official web portal to all federal, state and local government web resources and services.